Location: Unspecified
(41.5516°N, 88.1098°W)
Time: 05:18:12
(UTC-05:00)

Cosmos 2058 - Visible Passes

Search period start: 27 May 2016 00:00
Search period end: 06 June 2016 00:00
Orbit: 564 x 587 km, 82.5° (Epoch: 26 May)

Date Brightness Start Highest point End Pass type
(mag) Time Alt. Az. Time Alt. Az. Time Alt. Az.
27 May 3.0 02:23:26 68° WNW 02:23:26 68° WNW 02:27:27 10° N visible
28 May 5.5 00:50:53 12° E 00:50:53 12° E 00:52:18 10° ENE visible
28 May 3.4 02:27:08 49° WNW 02:27:08 49° WNW 02:31:03 10° N visible
29 May 5.2 00:54:35 16° ENE 00:54:35 16° ENE 00:56:44 10° NE visible
29 May 3.8 02:30:49 36° WNW 02:30:49 36° WNW 02:34:35 10° N visible
30 May 4.8 00:58:15 21° ENE 00:58:15 21° ENE 01:00:52 10° NE visible
30 May 4.2 02:34:30 27° WNW 02:34:30 27° WNW 02:38:02 10° NNW visible
31 May 4.5 01:01:55 28° ENE 01:01:55 28° ENE 01:04:51 10° NNE visible
31 May 4.6 02:38:10 21° WNW 02:38:11 21° WNW 02:41:23 10° NNW visible
01 Jun 4.1 01:05:34 36° ENE 01:05:34 36° ENE 01:08:44 10° NNE visible
01 Jun 5.0 02:41:48 16° WNW 02:41:58 16° WNW 02:44:35 10° NNW visible
02 Jun 3.7 01:09:12 47° NE 01:09:12 47° NE 01:12:32 10° NNE visible
02 Jun 5.3 02:45:27 12° WNW 02:45:46 12° WNW 02:47:27 10° NW visible
03 Jun 3.4 01:12:50 58° NNE 01:12:50 58° NNE 01:16:16 10° NNE visible
04 Jun 3.3 01:16:26 61° N 01:16:26 61° N 01:19:56 10° N visible
04 Jun 5.5 23:43:48 10° ENE 23:43:48 10° ENE 23:43:58 10° ENE visible
05 Jun 3.5 01:20:02 52° NW 01:20:02 52° NW 01:23:33 10° N visible
05 Jun 5.2 23:47:23 14° ENE 23:47:23 14° ENE 23:48:51 10° NE visible
